Location: ?????
(33.1933°N, 35.4106°E)
Time: 23:54:56
(UTC+00:00)

Daily predictions for brighter satellites

Satellite Brightness Start Highest point End
(mag) Time Altitude Azimuth Time Altitude Azimuth Time Altitude Azimuth
DELTA 2 R/B (1) 4.0 15:56:57 10° SW 16:02:16 45° SSE 16:07:36 10° ENE
USA 116 3.7 16:01:13 10° N 16:05:03 76° WNW 16:08:27 10° SSW
Cosmos 1842 4.1 16:01:40 10° NNE 16:05:08 29° E 16:08:35 10° SE
Cosmos 1544 4.1 16:03:35 10° SE 16:06:30 24° E 16:09:25 10° NE
Timation 2 Rocket 4.2 16:03:49 10° SSW 16:10:32 88° WNW 16:17:00 10° NNE
Cosmos 1025 Rocket 3.7 16:08:51 10° NNE 16:12:44 33° E 16:16:35 10° SE
Cosmos 1536 Rocket 3.9 16:09:21 10° N 16:13:27 41° E 16:17:32 10° SSE
YAOGAN 1 2.5 16:09:20 10° SSE 16:13:39 81° ENE 16:17:59 10° N
Okean 2 3.5 16:10:59 10° N 16:15:05 81° W 16:19:11 10° S
GPS 2-05 Rocket1 2.1 16:12:20 10° WNW 16:15:06 84° NNE 16:17:32 12° ESE
ISS -2.5 16:13:32 10° S 16:16:15 24° SE 16:18:57 10° ENE
Cosmos 2333 Rocket 3.3 16:12:27 10° N 16:17:10 26° ENE 16:21:53 10° ESE
USA 32 4.0 16:12:54 10° N 16:18:06 65° E 16:23:17 10° SSE
Lacrosse 4 Rocket 2.7 16:15:19 10° NW 16:19:09 42° WSW 16:22:58 10° S
Ariane Rocket 3.3 16:18:16 10° SE 16:23:04 46° ENE 16:27:55 10° N
CSL-04 Rocket 4.0 16:21:05 10° S 16:26:31 75° WSW 16:32:04 10° NNW
Cosmos 2237 Rocket 4.1 16:25:03 10° NNE 16:27:01 12° NE 16:28:49 10° ENE
deb Centaur AC-2 4.4 16:24:33 10° WSW 16:28:43 49° S 16:31:58 16° E
Cosmos 1441 Rocket 3.2 16:27:23 10° S 16:31:10 58° E 16:34:54 10° NNE
CZ-4 R/B 2.9 16:28:55 10° SSW 16:32:30 37° W 16:36:09 10° NNW
YAOGAN 6 4.2 16:33:43 10° SSW 16:37:06 38° W 16:40:32 10° NNW
COSMOS 2455 2.8 16:36:30 10° NNW 16:42:32 73° ENE 16:48:31 10° SSE
HJ-1C 3.3 16:43:23 10° SSE 16:46:41 60° ENE 16:50:01 10° N
Cosmos 2074 Rocket 4.0 16:42:06 10° N 16:48:21 84° W 16:54:33 10° S
SPOT 3 Rocket 4.3 16:50:32 23° ESE 16:52:39 32° ENE 16:57:09 10° N
CZ-2C R/B 3.5 16:49:03 10° NNE 16:53:28 64° ESE 16:57:50 10° S
Cosmos 1378 4.3 16:50:29 10° NNW 16:54:05 45° W 16:57:40 10° SSW
MOS 1 4.3 16:49:14 10° SSE 16:54:48 60° ENE 17:00:24 10° N
ADEOS Rocket 3.9 16:48:14 10° NNE 16:55:11 39° E 17:02:19 10° SSE
SJ-6B 3.7 16:56:30 31° E 16:57:00 32° ENE 17:00:40 10° N
Cosmos 2333 4.2 16:52:42 10° NNW 16:58:24 89° ENE 17:04:08 10° SSE
Aureole 1 Rocket 2.7 16:54:38 10° NNW 16:59:21 77° ENE 17:01:24 26° SSE
Cosmos 1707 3.1 16:57:09 10° N 17:00:52 41° E 17:01:18 39° E
Cosmos 2219 Rocket 2.1 16:59:11 10° NNW 17:04:45 66° ENE 17:08:05 25° SE
Cosmos 1939 Rocket 3.8 17:03:14 10° S 17:06:57 47° W 17:10:42 10° NNW
ATLAS 2AS CENTAUR R/B 2.9 17:00:35 10° NNW 17:08:00 57° NE 17:11:29 30° ESE
COSMOS 2428 2.6 17:02:34 10° NNW 17:08:15 73° ENE 17:11:43 24° SSE
Cosmos 2322 4.3 17:04:45 10° NNW 17:10:21 56° WSW 17:15:54 10° S
Cosmos 2154 Rocket 3.9 17:04:50 10° N 17:11:04 86° E 17:17:17 10° S
Cosmos 1371 Rocket 3.9 17:07:35 10° S 17:12:50 78° ESE 17:18:10 10° NNE
FREGAT/IRIS 2.8 17:13:34 63° NW 17:13:34 63° NW 17:16:03 10° NNW
Cosmos 2360 Rocket 4.2 17:11:42 10° NW 17:16:22 27° WSW 17:21:02 10° SSW
Lacrosse 5 rocket 1.2 17:14:44 10° SSW 17:17:44 57° S 17:17:44 57° S
Cosmos 2084 Rocket 3.4 17:14:26 10° SSW 17:18:50 68° ESE 17:20:04 45° NE
BREEZE-M DEB (TANK) 2.8 17:18:15 10° WNW 17:20:08 50° WSW 17:20:08 50° WSW
H-2A R/B 2.2 17:23:44 45° ENE 17:23:44 45° ENE 17:28:20 10° N
Cosmos 2219 3.5 17:17:56 10° SSW 17:23:39 69° WNW 17:29:23 10° NNE
Cosmos 2227 Rocket 2.1 17:18:07 10° S 17:23:41 65° ESE 17:29:18 10° NNE
Meteor 1-15 Rocket 4.2 17:18:18 10° S 17:24:00 88° E 17:29:51 10° N
SL-8 Rocket 4.2 17:19:43 10° N 17:25:34 43° E 17:25:54 42° E
Resurs 01 Rocket 3.6 17:28:08 16° NNE 17:28:08 16° NNE 17:29:24 10° NNE
ASTEX 1 3.9 17:23:33 10° N 17:28:21 60° W 17:33:08 10° SSW
ARGOS 3.2 17:30:58 53° E 17:31:07 53° ENE 17:36:19 10° N
Meteor 2-17 Rocket 4.4 17:25:37 10° N 17:31:33 55° E 17:32:17 52° ESE
Cosmos 2297 Rocket 2.1 17:28:58 10° SSW 17:34:36 87° ESE 17:40:18 10° NNE
USA 186 3.6 17:44:40 32° WNW 17:44:40 32° WNW 17:46:59 10° NNW
GEOS 3 Rocket 4.0 17:44:17 44° S 17:45:36 57° WSW 17:50:38 10° NW
DELTA 2 R/B (1) 3.9 17:43:06 10° W 17:48:40 63° NNW 17:49:34 55° NNE
Cosmos 1190 Rocket 4.4 17:45:35 10° N 17:49:43 50° NNE 17:49:43 50° NNE
ISS -1.2 17:50:06 10° W 17:51:56 22° WNW 17:51:56 22° WNW
NOSS 0 Rocket 3.9 17:51:57 10° NNW 17:58:10 79° WSW 17:58:53 69° S
CZ-3A R/B 4.3 16:35:04 10° WSW 18:00:57 61° S 18:05:13 46° SE
Cosmos 2333 Rocket 3.5 17:56:16 10° NW 18:01:26 36° WSW 18:04:02 24° SSW
Cosmos 2237 Rocket 2.6 18:06:03 10° NNW 18:10:40 60° NNW 18:10:40 60° NNW
CZ-2C R/B 4.2 18:13:58 37° N 18:13:58 37° N 18:17:12 10° N
NOSS 3-4 (A) 3.9 18:08:05 10° NNW 18:15:23 78° WSW 18:16:07 72° SSW
NOSS 3-4 (C) 3.9 18:08:11 10° NNW 18:15:29 79° WSW 18:16:11 73° SSW
Meteor 2-5 Rocket 4.3 18:11:34 10° N 18:16:06 56° NNW 18:16:06 56° NNW
Cosmos 1980 4.3 18:15:15 10° NNW 18:19:41 53° NW 18:19:41 53° NW
SL-16 R/B 4.0 18:36:08 10° NNW 18:38:14 23° N 18:38:14 23° N
ATLAS 2AS CENTAUR R/B 4.4 18:52:47 10° WNW 18:58:17 24° WSW 18:58:56 23° WSW
